Time,TemperatureF,DewpointF,PressureIn,WindDirection,WindDirectionDegrees,WindSpeedMPH,WindSpeedGustMPH,Humidity,HourlyPrecipIn,Conditions,Clouds,dailyrainin,SolarRadiationWatts/m^2,SoftwareType,DateUTC
2013-07-10 00:01:00,63.0,62.0,-100.00,ESE,115,1.0,4.0,98,0.00,,,0.00,0.000000,,2013-07-10 04:01:00,
2013-07-10 00:11:00,63.0,62.0,-100.00,ESE,115,1.0,4.0,98,0.00,,,0.00,0.000000,,2013-07-10 04:11:00,
2013-07-10 00:22:00,63.0,62.0,-100.00,ESE,115,1.0,4.0,98,0.00,,,0.00,0.000000,,2013-07-10 04:22:00,
2013-07-10 00:52:00,62.0,61.0,-100.00,East,99,2.0,4.0,98,0.00,,,0.00,0.000000,,2013-07-10 04:52:00,
2013-07-10 01:02:00,62.0,61.0,-100.00,East,99,2.0,4.0,98,0.00,,,0.00,0.000000,,2013-07-10 05:02:00,
2013-07-10 01:12:00,62.0,61.0,-100.00,East,99,2.0,4.0,98,0.00,,,0.00,0.000000,,2013-07-10 05:12:00,
2013-07-10 01:22:00,62.0,61.0,-100.00,East,99,2.0,4.0,98,0.00,,,0.00,0.000000,,2013-07-10 05:22:00,
2013-07-10 01:53:00,62.0,61.0,-100.00,East,94,1.0,3.0,98,0.00,,,0.00,0.000000,,2013-07-10 05:53:00,
2013-07-10 02:01:00,62.0,61.0,-100.00,East,94,1.0,3.0,98,0.00,,,0.00,0.000000,,2013-07-10 06:01:00,
2013-07-10 02:11:00,62.0,61.0,-100.00,East,94,1.0,3.0,98,0.00,,,0.00,0.000000,,2013-07-10 06:11:00,
2013-07-10 02:22:00,62.0,61.0,-100.00,East,94,1.0,3.0,98,0.00,,,0.00,0.000000,,2013-07-10 06:22:00,
2013-07-10 02:52:00,62.0,62.0,-100.00,SSE,165,1.0,3.0,99,0.00,,,0.00,0.000000,,2013-07-10 06:52:00,
2013-07-10 03:01:00,62.0,62.0,-100.00,SSE,165,1.0,3.0,99,0.00,,,0.00,0.000000,,2013-07-10 07:01:00,
2013-07-10 03:12:00,62.0,62.0,-100.00,SSE,165,1.0,3.0,99,0.00,,,0.00,0.000000,,2013-07-10 07:12:00,
2013-07-10 03:22:00,62.0,62.0,-100.00,SSE,165,1.0,3.0,99,0.00,,,0.00,0.000000,,2013-07-10 07:22:00,
2013-07-10 03:53:00,61.0,61.0,-100.00,NNW,348,1.0,5.0,99,0.00,,,0.00,0.000000,,2013-07-10 07:53:00,
2013-07-10 04:02:00,61.0,61.0,-100.00,NNW,348,1.0,5.0,99,0.00,,,0.00,0.000000,,2013-07-10 08:02:00,
2013-07-10 04:12:00,61.0,61.0,-100.00,NNW,348,1.0,5.0,99,0.00,,,0.00,0.000000,,2013-07-10 08:12:00,
2013-07-10 04:23:00,61.0,61.0,-100.00,NNW,348,1.0,5.0,99,0.00,,,0.00,0.000000,,2013-07-10 08:23:00,
2013-07-10 04:53:00,62.0,62.0,-100.00,SE,137,1.0,2.0,99,0.00,,,0.00,0.000000,,2013-07-10 08:53:00,
2013-07-10 05:02:00,62.0,62.0,-100.00,SE,137,1.0,2.0,99,0.00,,,0.00,0.000000,,2013-07-10 09:02:00,
2013-07-10 05:12:00,62.0,62.0,-100.00,SE,137,1.0,2.0,99,0.00,,,0.00,0.000000,,2013-07-10 09:12:00,
2013-07-10 05:22:00,62.0,62.0,-100.00,SE,137,1.0,2.0,99,0.00,,,0.00,0.000000,,2013-07-10 09:22:00,
2013-07-10 05:53:00,62.0,62.0,-100.00,NE,56,2.0,3.0,99,0.00,,,0.00,1.000000,,2013-07-10 09:53:00,
2013-07-10 06:01:00,62.0,62.0,-100.00,NE,56,2.0,3.0,99,0.00,,,0.00,1.000000,,2013-07-10 10:01:00,
2013-07-10 06:13:00,62.0,62.0,-100.00,NE,56,2.0,3.0,99,0.00,,,0.00,1.000000,,2013-07-10 10:13:00,
2013-07-10 06:23:00,62.0,62.0,-100.00,NE,56,2.0,3.0,99,0.00,,,0.00,1.000000,,2013-07-10 10:23:00,
2013-07-10 07:00:00,-999.0,-99.9,-100.00,East,82,2.0,5.0,-999,-99.99,,,-99.99,13.000000,,2013-07-10 11:00:00,
2013-07-10 07:11:00,62.0,62.0,-100.00,East,82,2.0,5.0,99,0.00,,,0.00,13.000000,,2013-07-10 11:11:00,
2013-07-10 07:23:00,62.0,62.0,-100.00,East,82,2.0,5.0,99,0.00,,,0.00,13.000000,,2013-07-10 11:23:00,
2013-07-10 09:52:00,65.0,64.0,-100.00,ENE,78,1.0,6.0,96,-99.99,,,0.00,108.000000,,2013-07-10 13:52:00,
2013-07-10 10:02:00,65.0,64.0,-100.00,ENE,78,1.0,6.0,96,-99.99,,,0.00,108.000000,,2013-07-10 14:02:00,
2013-07-10 10:12:00,65.0,64.0,-100.00,ENE,78,1.0,6.0,96,-99.99,,,0.00,108.000000,,2013-07-10 14:12:00,
2013-07-10 10:22:00,65.0,64.0,-100.00,ENE,78,1.0,6.0,96,-99.99,,,0.00,108.000000,,2013-07-10 14:22:00,
2013-07-10 11:01:00,65.0,64.0,-100.00,East,85,2.0,6.0,95,0.00,,,0.00,148.000000,,2013-07-10 15:01:00,
2013-07-10 11:11:00,65.0,64.0,-100.00,East,85,2.0,6.0,95,0.00,,,0.00,148.000000,,2013-07-10 15:11:00,
2013-07-10 11:22:00,65.0,64.0,-100.00,East,85,2.0,6.0,95,0.00,,,0.00,148.000000,,2013-07-10 15:22:00,
2013-07-10 12:02:00,65.0,64.0,-100.00,East,93,2.0,6.0,97,0.00,,,0.00,108.000000,,2013-07-10 16:02:00,
2013-07-10 12:11:00,65.0,64.0,-100.00,East,93,2.0,6.0,97,0.00,,,0.00,108.000000,,2013-07-10 16:11:00,
2013-07-10 12:23:00,65.0,64.0,-100.00,East,93,2.0,6.0,97,0.00,,,0.00,108.000000,,2013-07-10 16:23:00,
2013-07-10 13:02:00,66.0,65.0,-100.00,NE,44,2.0,5.0,98,0.00,,,0.00,85.000000,,2013-07-10 17:02:00,
2013-07-10 13:12:00,66.0,65.0,-100.00,NE,44,2.0,5.0,98,0.00,,,0.00,85.000000,,2013-07-10 17:12:00,
2013-07-10 13:23:00,66.0,65.0,-100.00,NE,44,2.0,5.0,98,0.00,,,0.00,85.000000,,2013-07-10 17:23:00,
2013-07-10 13:53:00,67.0,66.0,-100.00,East,89,2.0,5.0,98,0.00,,,0.00,119.000000,,2013-07-10 17:53:00,
2013-07-10 14:02:00,67.0,66.0,-100.00,East,89,2.0,5.0,98,0.00,,,0.00,119.000000,,2013-07-10 18:02:00,
2013-07-10 14:11:00,67.0,66.0,-100.00,East,89,2.0,5.0,98,0.00,,,0.00,119.000000,,2013-07-10 18:11:00,
2013-07-10 14:22:00,67.0,66.0,-100.00,East,89,2.0,5.0,98,0.00,,,0.00,119.000000,,2013-07-10 18:22:00,
2013-07-10 14:53:00,69.0,68.0,-100.00,ENE,65,2.0,3.0,95,0.00,,,0.00,212.000000,,2013-07-10 18:53:00,
2013-07-10 15:02:00,69.0,68.0,-100.00,ENE,65,2.0,3.0,95,0.00,,,0.00,212.000000,,2013-07-10 19:02:00,
2013-07-10 15:11:00,69.0,68.0,-100.00,ENE,65,2.0,3.0,95,0.00,,,0.00,212.000000,,2013-07-10 19:11:00,
2013-07-10 15:22:00,69.0,68.0,-100.00,ENE,65,2.0,3.0,95,0.00,,,0.00,212.000000,,2013-07-10 19:22:00,
2013-07-10 15:53:00,69.0,67.0,-100.00,ENE,70,2.0,4.0,94,0.00,,,0.00,200.000000,,2013-07-10 19:53:00,
2013-07-10 16:02:00,69.0,67.0,-100.00,ENE,70,2.0,4.0,94,0.00,,,0.00,200.000000,,2013-07-10 20:02:00,
2013-07-10 16:11:00,69.0,67.0,-100.00,ENE,70,2.0,4.0,94,0.00,,,0.00,200.000000,,2013-07-10 20:11:00,
2013-07-10 16:22:00,69.0,67.0,-100.00,ENE,70,2.0,4.0,94,0.00,,,0.00,200.000000,,2013-07-10 20:22:00,
2013-07-10 16:52:00,69.0,67.0,-100.00,ENE,70,2.0,5.0,94,0.00,,,0.00,192.000000,,2013-07-10 20:52:00,
2013-07-10 17:01:00,69.0,67.0,-100.00,ENE,70,2.0,5.0,94,0.00,,,0.00,192.000000,,2013-07-10 21:01:00,
2013-07-10 17:12:00,69.0,67.0,-100.00,ENE,70,2.0,5.0,94,0.00,,,0.00,192.000000,,2013-07-10 21:12:00,
2013-07-10 17:22:00,69.0,67.0,-100.00,ENE,70,2.0,5.0,94,0.00,,,0.00,192.000000,,2013-07-10 21:22:00,
2013-07-10 17:52:00,68.0,67.0,-100.00,NE,45,2.0,5.0,97,0.00,,,0.00,107.000000,,2013-07-10 21:52:00,
2013-07-10 18:01:00,68.0,67.0,-100.00,NE,45,2.0,5.0,97,0.00,,,0.00,107.000000,,2013-07-10 22:01:00,
2013-07-10 18:11:00,68.0,67.0,-100.00,NE,45,2.0,5.0,97,0.00,,,0.00,107.000000,,2013-07-10 22:11:00,
2013-07-10 18:21:00,68.0,67.0,-100.00,NE,45,2.0,5.0,97,0.00,,,0.00,107.000000,,2013-07-10 22:21:00,
2013-07-10 18:53:00,67.0,66.0,-100.00,NNE,26,2.0,4.0,98,0.02,,,0.02,26.000000,,2013-07-10 22:53:00,
2013-07-10 19:01:00,67.0,66.0,-100.00,NNE,26,2.0,4.0,98,0.02,,,0.02,26.000000,,2013-07-10 23:01:00,
2013-07-10 19:11:00,67.0,66.0,-100.00,NNE,26,2.0,4.0,98,0.02,,,0.02,26.000000,,2013-07-10 23:11:00,
2013-07-10 19:22:00,67.0,66.0,-100.00,NNE,26,2.0,4.0,98,0.02,,,0.02,26.000000,,2013-07-10 23:22:00,
2013-07-10 19:52:00,67.0,66.0,-100.00,ESE,108,1.0,6.0,98,0.00,,,0.02,12.000000,,2013-07-10 23:52:00,
2013-07-10 20:01:00,67.0,66.0,-100.00,ESE,108,1.0,6.0,98,0.00,,,0.02,12.000000,,2013-07-11 00:01:00,
2013-07-10 20:11:00,67.0,66.0,-100.00,ESE,108,1.0,6.0,98,0.00,,,0.02,12.000000,,2013-07-11 00:11:00,
2013-07-10 20:22:00,67.0,66.0,-100.00,ESE,108,1.0,6.0,98,0.00,,,0.02,12.000000,,2013-07-11 00:22:00,
2013-07-10 20:52:00,68.0,68.0,-100.00,SSE,154,0.0,5.0,99,0.16,,,0.18,4.000000,,2013-07-11 00:52:00,
2013-07-10 21:01:00,68.0,68.0,-100.00,SSE,154,0.0,5.0,99,0.16,,,0.18,4.000000,,2013-07-11 01:01:00,
2013-07-10 21:11:00,68.0,68.0,-100.00,SSE,154,0.0,5.0,99,0.16,,,0.18,4.000000,,2013-07-11 01:11:00,
2013-07-10 21:22:00,68.0,68.0,-100.00,SSE,154,0.0,5.0,99,0.16,,,0.18,4.000000,,2013-07-11 01:22:00,
2013-07-10 21:52:00,68.0,68.0,-100.00,ESE,112,0.0,2.0,99,0.00,,,0.18,0.000000,,2013-07-11 01:52:00,
2013-07-10 22:02:00,68.0,68.0,-100.00,ESE,112,0.0,2.0,99,0.00,,,0.18,0.000000,,2013-07-11 02:02:00,
2013-07-10 22:11:00,68.0,68.0,-100.00,ESE,112,0.0,2.0,99,0.00,,,0.18,0.000000,,2013-07-11 02:11:00,
2013-07-10 22:22:00,68.0,68.0,-100.00,ESE,112,0.0,2.0,99,0.00,,,0.18,0.000000,,2013-07-11 02:22:00,
2013-07-10 22:53:00,68.0,68.0,-100.00,NW,324,1.0,2.0,99,0.00,,,0.18,0.000000,,2013-07-11 02:53:00,
2013-07-10 23:02:00,68.0,68.0,-100.00,NW,324,1.0,2.0,99,0.00,,,0.18,0.000000,,2013-07-11 03:02:00,
2013-07-10 23:11:00,68.0,68.0,-100.00,NW,324,1.0,2.0,99,0.00,,,0.18,0.000000,,2013-07-11 03:11:00,
2013-07-10 23:22:00,68.0,68.0,-100.00,NW,324,1.0,2.0,99,0.00,,,0.18,0.000000,,2013-07-11 03:22:00,
2013-07-10 23:53:00,67.0,67.0,-100.00,SSE,163,0.0,2.0,99,0.00,,,0.18,0.000000,,2013-07-11 03:53:00,